2022-047AH (52425 NORAD) Tracking and Keplerian Element Data

This shows tracking and keplerian element data for the satellite.

Feedback or suggestion? Click here.




ElementValue
Catalog52425
Name2022-047AH
Epoch Orbit800
Epoch Day166.19141456
Epoch Year2022
RAAN251.082
Inclination97.4507
Eccentricity0.0008785
Argument of Perigee197.0324
Mean Anonmoly163.0614
Mean Motion15.12432238
Decay Rate7.449E-05
L11 52425U 22047AH 22166.19141456 .00007449 00000+0 43184-3 0 9997
L22 52425 97.4507 251.0820 0008785 197.0324 163.0614 15.12432238 8004

Live tracking and technical data element details for 2022-047AH (NORAD 52425). 2022-047AH can be tracked NOW for your location showing map with azimuth and elevation plus other details from your city location.

Track the satellite on the map from your city or location and see movement details for azimuth, elevation, latitude, longitude, range, height, and movement on the map or in text.







IsCatalogInMostPopularTable: catalog: 52425, numindb: 1
Update: records affected: 1



GetName: 52425 2022-047AH

Hit Count: updated at: Mon, 27 Jun 2022 04:43:47 GMT